Погода в Имеке

Россия / Республика Хакасия     52°51′01″N   89°55′39″E
темп.,
°C
ветер,
м/с
пор.,
м/с
влажн.,
%
обл.,
%
осадки,
мм/ч
давл.,
гПа
погр.,
м
6 марта, сб
сб601:00−8ю338959 0.1 102944
04:00−10ю3386100 0.0 102857
07:00−12ю238066 0.0 102839
10:00−6ю127659 0.0 1026117
13:00−1з018379 0.0 1022292
16:000ссз118982 0.0 1019146
19:00−4ююз128272 0.0 102021
22:00−6ююз228480 0.0 102021
7 марта, вс
вс701:00−8ююз228460 0.0 102021
04:00−10ююз22840 0.0 101921
07:00−10ююз228432 0.0 102021
10:00−5ююз128299 0.0 1020113
13:00−1зюз3677100 0.0 1018840
16:00−1з4881100 0.0 1018839
19:00−5зюз368886 0.0 1021123
22:00−7юз338722 0.0 102439
8 марта, пн
пн801:00−7ююз238061 0.0 102523
04:00−9ю228298 0.0 102523
07:00−10ю118496 0.0 102622
10:00−5ююв018396 0.0 1023114
13:00−1св228789 0.0 1019294
16:00−1ссв229557 0.0 1016188
19:00−5ссз119973 0.0 101721
22:00−3ююв2295100 0.0 101730
9 марта, вт
вт901:00−2юз2598100 0.4 1018238
04:00−4юз3129479 1.6 1019507
07:00−3ююз3109789 1.8 1022567
10:00−1зюз6138295 0.3 10241316
13:00−1з598493 0.4 1024895
16:00−1з598098 0.1 10251004
19:00−6зюз128977 0.1 102721
22:00−7ю129251 0.0 102721
10 марта, ср
ср1001:00−8ююв119476 0.0 102521
04:00−10ююз119542 0.0 102421
07:00−10ююз129023 0.0 102421
10:00−4ю128039 0.0 1021151
13:00+1сз118869 0.0 1018209
16:00+2ссв119454 0.0 1016156
19:00−2в019676 0.0 101521
22:00−3в119482 0.0 101522